Location: Barcelona
(41.3830°N, 2.1830°E)
Time: 22:26:46
(UTC+01:00)

N. Korean satellite - Visible Passes

Search period start: 24 February 2020 00:00
Search period end: 05 March 2020 00:00
Orbit: 456 x 505 km, 97.2° (Epoch: 24 February)

Date Brightness Start Highest point End Pass type
(mag) Time Alt. Az. Time Alt. Az. Time Alt. Az.
24 Feb 7.3 06:26:54 10° NNE 06:30:36 59° E 06:34:12 10° S visible
25 Feb 8.9 06:01:44 10° NE 06:04:58 27° E 06:08:08 10° SSE visible
26 Feb 10.0 05:37:18 10° ENE 05:39:14 14° E 05:41:10 10° ESE visible
27 Feb 6.6 06:43:35 10° N 06:47:18 82° WNW 06:50:58 10° SSW visible
28 Feb 7.9 06:18:10 10° NNE 06:21:44 44° E 06:25:14 10° S visible
29 Feb 9.4 05:53:10 10° NE 05:56:04 21° E 05:58:55 10° SE visible
01 Mar 10.3 05:29:31 10° ENE 05:30:18 11° E 05:31:06 10° ESE visible
02 Mar 6.8 06:34:45 10° NNE 06:38:27 77° ESE 06:42:05 10° S visible
03 Mar 8.5 06:09:28 10° NNE 06:12:51 34° E 06:16:10 10° SSE visible
04 Mar 9.8 05:44:41 10° NE 05:47:08 17° E 05:49:32 10° SE visible
